Home > Weather > Kansas City > Past weeks

Flag for U.S.A. Weather for the Past 2 Weeks in Kansas City, Missouri, U.S.A.

Now
26 °F

Sunny.


Feels Like: 13 °F
Forecast: 19 / 29 °F
Wind: 17 mph from North

Location: Kansas City Downtown Airport

Current Time: Feb 9, 2016 at 1:02:48 PM

Latest Report: Feb 9, 2016 at 11:54 AM


Visibility: 10 mi

Pressure: 30.23 "Hg

Humidity: 46%

Dew point: 8 °F

Location of Kansas CityLocation

Historic Weather in Kansas City — Graph

°F

Kansas City Temperature Yesterday

Maximum temperature yesterday: 38 °F (at 12:54 AM)
Minimum temperature yesterday: 28 °F (at 10:54 PM)
Average temperature yesterday: 33 °F

High & Low Weather Summary for the Past Weeks

 TemperatureHumidityPressure
High66 °F (Jan 29, 3:54 PM)93% (Jan 29, 12:54 AM)30.45 "Hg (Jan 29, 12:54 AM)
Low19 °F (Feb 9, 8:04 AM)24% (Feb 7, 4:54 PM)29.35 "Hg (Feb 2, 1:54 PM)
Average39 °F62%30.00 "Hg
* Reported Jan 25 11:54 AM — Feb 9 11:54 AM, Kansas City, Weather by CustomWeather, © 2016

Note: Actual official high and low records may vary slightly from our data, if they occured in-between our weather recording intervals... More about our weather records

Advertising

Kansas City Weather History for the Previous 24 Hours

 ConditionsComfort  
Time TempWeatherWind HumidityBarometerVisibility
11:54 AM
Tue, Feb 9
26 °FSunny.17 mph46%30.23 "Hg10 mi
10:54 AM24 °FSunny.17 mph52%30.23 "Hg10 mi
9:54 AM22 °FSunny.14 mph55%30.22 "Hg10 mi
8:54 AM20 °FPassing clouds.20 mph57%30.19 "Hg10 mi
8:04 AM19 °FPassing clouds.14 mph62%30.16 "Hg10 mi
6:54 AM20 °FClear.14 mph65%30.16 "Hg10 mi
5:54 AM24 °FClear.15 mph52%30.11 "Hg10 mi
4:54 AM26 °FClear.20 mph46%30.08 "Hg10 mi
3:54 AM27 °FClear.20 mph46%30.05 "Hg10 mi
2:54 AM29 °FClear.16 mph49%30.05 "Hg10 mi
1:54 AM29 °FClear.10 mph54%30.06 "Hg10 mi
12:54 AM30 °FClear.13 mph59%30.06 "Hg10 mi
11:54 PM
Mon, Feb 8
28 °FClear.8 mph66%30.09 "Hg10 mi
10:54 PM28 °FClear.No wind64%30.10 "Hg10 mi
9:54 PM29 °FClear.7 mph58%30.11 "Hg10 mi
8:54 PM30 °FClear.10 mph56%30.11 "Hg10 mi
7:54 PM31 °FPassing clouds.10 mph52%30.12 "Hg10 mi
6:54 PM32 °FPassing clouds.17 mph52%30.11 "Hg10 mi
5:54 PM32 °FPassing clouds.16 mph50%30.11 "Hg10 mi
4:54 PM33 °FOvercast.18 mph49%30.10 "Hg10 mi
3:54 PM34 °FOvercast.21 mph44%30.07 "Hg10 mi
2:54 PM33 °FOvercast.23 mph52%30.06 "Hg10 mi
1:54 PM32 °FOvercast.17 mph52%30.06 "Hg10 mi
Weather by CustomWeather, © 2016

See weather overviewHow to use our weather pages